Weather History for Ann Arbor, MI

Change the Weather History Date:

Saturday, March 29, 2014

  Actual Average Record
Temperature  
Mean Temperature 35 °F -  
Max Temperature 37 °F 48 °F 61 °F (2005)
Min Temperature 32 °F 28 °F 17 °F (2011)
Degree Days  
Heating Degree Days 30    
Moisture  
Dew Point 27 °F    
Average Humidity 71    
Maximum Humidity 79    
Minimum Humidity 64    
Precipitation  
Precipitation 0.00 in - - ()
Sea Level Pressure  
Sea Level Pressure 30.15 in    
Wind  
Wind Speed 9 mph (NE)    
Max Wind Speed 16 mph    
Max Gust Speed 24 mph    
Visibility 10 miles    
Events      
Averages and records for this station are not official NWS values.
T = Trace of Precipitation, MM = Missing Value Source: NWS Daily Summary

Daily Weather History Graph

Daily Weather History Graph

Search for Another Location

Airport:

Trip Planner

Search our weather history database for the weather conditions in past years. The results will help you decide how hot, cold, wet, or windy it might be!

Date:

Astronomy

Mar. 29, 2014 Rise Set
Actual Time 7:22 AM EDT 7:57 PM EDT
Civil Twilight 6:54 AM EDT 8:25 PM EDT
Nautical Twilight 6:21 AM EDT 8:58 PM EDT
Astronomical Twilight 5:47 AM EDT 9:33 PM EDT
Moon 6:32 AM EDT (3/29) 7:00 PM EDT (3/29)
Length of Visible Light 13h 31m
Length of Day
12h 34m
Waning Crescent, 2% of the Moon is Illuminated
Mar 29
Waning Crescent
Mar 30
New
Apr 7
First Quarter
Apr 15
Full
Apr 22
Last Quarter

Hourly Weather History & Observations

Time (EDT) Temp. Windchill Dew Point Humidity Pressure Visibility Wind Dir Wind Speed Gust Speed Precip Events Conditions
12:53 AM 37.9 °F 32.7 °F 30.0 °F 73% 30.18 in 10.0 mi NE 6.9 mph - N/A   Overcast
1:53 AM 37.0 °F 31.6 °F 30.0 °F 76% 30.18 in 10.0 mi ENE 6.9 mph - N/A   Overcast
2:53 AM 37.9 °F 35.5 °F 30.0 °F 73% 30.19 in 10.0 mi East 3.5 mph - N/A   Overcast
3:53 AM 37.0 °F 31.0 °F 30.0 °F 76% 30.18 in 10.0 mi East 8.1 mph - N/A   Overcast
4:53 AM 36.0 °F 29.6 °F 30.0 °F 79% 30.16 in 10.0 mi ENE 8.1 mph - N/A   Overcast
5:53 AM 35.1 °F 29.3 °F 28.9 °F 78% 30.16 in 9.0 mi ENE 6.9 mph - N/A   Overcast
6:53 AM 35.1 °F 28.6 °F 28.0 °F 76% 30.16 in 9.0 mi ENE 8.1 mph - N/A   Overcast
7:53 AM 35.1 °F 27.9 °F 28.0 °F 76% 30.18 in 10.0 mi NE 9.2 mph - N/A   Overcast
8:53 AM 35.1 °F 27.9 °F 28.0 °F 76% 30.18 in 9.0 mi NE 9.2 mph - N/A   Overcast
9:53 AM 35.1 °F 27.4 °F 28.0 °F 76% 30.18 in 10.0 mi NE 10.4 mph - N/A   Overcast
10:53 AM 36.0 °F 29.0 °F 28.0 °F 73% 30.19 in 10.0 mi NE 9.2 mph 17.3 mph N/A   Overcast
11:53 AM 37.9 °F 30.5 °F 27.0 °F 65% 30.17 in 10.0 mi NE 11.5 mph - N/A   Overcast
12:53 PM 37.0 °F 28.5 °F 27.0 °F 67% 30.15 in 10.0 mi NNE 13.8 mph - N/A   Overcast
1:53 PM 37.0 °F 28.9 °F 28.0 °F 70% 30.12 in 10.0 mi NE 12.7 mph - N/A   Overcast
2:53 PM 36.0 °F 26.3 °F 28.0 °F 73% 30.10 in 10.0 mi NNE 16.1 mph 24.2 mph N/A   Overcast
3:53 PM 37.0 °F 27.7 °F 27.0 °F 67% 30.09 in 10.0 mi North 16.1 mph 24.2 mph N/A   Overcast
4:53 PM 37.0 °F 28.5 °F 27.0 °F 67% 30.08 in 10.0 mi NE 13.8 mph 23.0 mph N/A   Overcast
5:53 PM 36.0 °F 26.7 °F 26.1 °F 67% 30.09 in 10.0 mi NNE 15.0 mph - N/A   Overcast
6:53 PM 36.0 °F 26.7 °F 25.0 °F 64% 30.11 in 10.0 mi North 15.0 mph - N/A   Overcast
7:53 PM 34.0 °F 25.0 °F 24.1 °F 67% 30.14 in 10.0 mi NNE 12.7 mph 23.0 mph N/A   Overcast
8:53 PM 34.0 °F 23.8 °F 24.1 °F 67% 30.15 in 10.0 mi NNE 16.1 mph - N/A   Overcast
9:53 PM 33.1 °F 22.6 °F 23.0 °F 66% 30.16 in 10.0 mi NNE 16.1 mph 23.0 mph N/A   Overcast
10:53 PM 33.1 °F 24.9 °F 24.1 °F 70% 30.17 in 10.0 mi North 10.4 mph 19.6 mph N/A   Overcast
11:53 PM 32.0 °F 24.2 °F 24.1 °F 73% 30.16 in 10.0 mi North 9.2 mph - N/A   Overcast